TimeMST,TemperatureF,Dew PointF,Humidity,Sea Level PressureIn,VisibilityMPH,Wind Direction,Wind SpeedMPH,Gust SpeedMPH,PrecipitationIn,Events,Conditions,WindDirDegrees,DateUTC
12:52 AM,17.1,8.1,68,29.97,10.0,NNE,11.5,-,N/A,,Clear,30,2014-02-01 07:52:00
1:52 AM,15.1,7.0,70,29.99,10.0,North,11.5,17.3,N/A,,Mostly Cloudy,10,2014-02-01 08:52:00
2:52 AM,14.0,6.1,71,30.02,10.0,NNE,11.5,18.4,N/A,,Scattered Clouds,20,2014-02-01 09:52:00
3:52 AM,12.0,5.0,73,30.06,10.0,NNE,10.4,-,N/A,,Overcast,20,2014-02-01 10:52:00
4:52 AM,10.9,3.9,73,30.09,10.0,NNE,13.8,-,0.00,,Overcast,20,2014-02-01 11:52:00
5:52 AM,10.9,3.0,70,30.11,10.0,NNE,9.2,-,N/A,,Overcast,20,2014-02-01 12:52:00
6:52 AM,12.0,3.9,70,30.14,10.0,North,9.2,-,N/A,,Overcast,360,2014-02-01 13:52:00
7:45 AM,12.2,5.0,73,30.01,2.5,North,5.8,-,0.00,Snow,Light Snow,10,2014-02-01 14:45:00
7:52 AM,12.0,5.0,73,30.17,2.5,North,5.8,-,0.00,Snow,Light Snow,360,2014-02-01 14:52:00
8:04 AM,12.2,6.8,79,30.01,1.2,NNE,6.9,-,0.00,Snow,Light Snow,20,2014-02-01 15:04:00
8:52 AM,12.9,7.0,77,30.18,1.0,NNE,6.9,-,0.00,Snow,Light Snow,20,2014-02-01 15:52:00
9:00 AM,12.2,6.8,79,30.04,0.8,NNE,10.4,-,0.00,Snow,Light Snow,20,2014-02-01 16:00:00
9:26 AM,12.2,6.8,79,30.05,1.0,NNE,16.1,20.7,0.00,Snow,Light Snow,20,2014-02-01 16:26:00
9:52 AM,12.0,5.0,73,30.22,1.0,NNE,12.7,-,0.00,Snow,Light Snow,20,2014-02-01 16:52:00
10:19 AM,12.2,3.2,67,30.07,3.0,North,12.7,-,0.01,Snow,Light Snow,360,2014-02-01 17:19:00
10:37 AM,12.2,5.0,73,30.08,2.5,North,8.1,-,0.01,Snow,Light Snow,350,2014-02-01 17:37:00
10:44 AM,12.2,5.0,73,30.08,1.8,NNE,9.2,-,0.01,Snow,Light Snow,20,2014-02-01 17:44:00
10:52 AM,12.0,7.0,80,30.25,0.8,NNE,8.1,-,0.01,Snow,Light Snow,20,2014-02-01 17:52:00
11:02 AM,12.2,3.2,67,30.08,1.2,NNE,10.4,-,0.00,Snow,Light Snow,20,2014-02-01 18:02:00
11:39 AM,12.2,5.0,73,30.07,3.0,NNW,8.1,-,0.00,Snow,Light Snow,340,2014-02-01 18:39:00
11:52 AM,12.9,6.1,74,30.23,6.0,North,8.1,-,0.00,,Haze,360,2014-02-01 18:52:00
12:16 PM,12.2,6.8,79,30.07,1.8,Calm,Calm,-,0.00,Snow,Light Snow,0,2014-02-01 19:16:00
12:52 PM,14.0,7.0,74,30.22,2.0,Calm,Calm,-,0.00,Snow,Light Snow,0,2014-02-01 19:52:00
1:07 PM,15.8,8.6,73,30.06,4.0,WNW,5.8,-,0.00,Snow,Light Snow,290,2014-02-01 20:07:00
1:52 PM,16.0,7.0,68,30.21,9.0,North,4.6,-,0.00,,Overcast,360,2014-02-01 20:52:00
2:52 PM,16.0,6.1,65,30.24,10.0,NW,4.6,-,N/A,,Overcast,320,2014-02-01 21:52:00
3:52 PM,16.0,6.1,65,30.25,10.0,Calm,Calm,-,N/A,,Overcast,0,2014-02-01 22:52:00
4:36 PM,15.8,5.0,62,30.09,10.0,Calm,Calm,-,N/A,,Scattered Clouds,0,2014-02-01 23:36:00
4:52 PM,14.0,5.0,67,30.26,10.0,Calm,Calm,-,N/A,,Partly Cloudy,0,2014-02-01 23:52:00
5:52 PM,6.1,1.9,83,30.30,10.0,Calm,Calm,-,N/A,,Clear,0,2014-02-02 00:52:00
6:52 PM,1.9,-2.0,83,30.33,10.0,ENE,3.5,-,N/A,,Clear,60,2014-02-02 01:52:00
7:52 PM,-2.0,-6.0,83,30.34,10.0,Calm,Calm,-,N/A,,Clear,0,2014-02-02 02:52:00
8:52 PM,-4.0,-8.0,83,30.34,10.0,Calm,Calm,-,N/A,,Clear,0,2014-02-02 03:52:00
9:52 PM,-6.0,-9.0,87,30.36,10.0,Calm,Calm,-,N/A,,Clear,0,2014-02-02 04:52:00
10:52 PM,-6.0,-11.0,79,30.35,10.0,Calm,Calm,-,N/A,,Clear,0,2014-02-02 05:52:00
11:52 PM,-7.1,-11.9,79,30.34,10.0,Calm,Calm,-,N/A,,Clear,0,2014-02-02 06:52:00